Regional Weather Roundup
Issued by NWS

Home | Current Version | Previous Version | Graphics & Text | Print | Product List | Glossary On
Versions: 1 2 3 4 5 6 7 8 9 10 11 12 13 14 15 16 17 18 19 20 21 22 23 24 25 26 27 28 29 30 31 32 33 34 35 36 37 38 39 40 41 42 43 44 45 46 47 48 49 50
000
ASUS44 KMEG 280010
RWRTN
TENNESSEE HOURLY STATE WEATHER ROUNDUP
NATIONAL WEATHER SERVICE MEMPHIS TN
600 PM CST SAT DEC 27 2014

TNZ002-004-019-021-049-052-054-088>092-280100-
WEST TENNESSEE

CITY           SKY/WX    TMP DP  RH WIND       PRES   REMARKS
MEMPHIS INTL   CLOUDY    55  53  93 CALM      30.08R
NWS MEMPHIS      N/A     53 N/A N/A MISG        N/A
JACKSON        CLOUDY    51  49  92 CALM      30.08F
DYERSBURG      CLOUDY    52  39  62 CALM      30.11R
UNION CITY     CLOUDY    48  48 100 CALM      30.10R
PARIS          CLOUDY    48  46  93 SE7       30.09F
HUNTINGDON     CLOUDY    48  47  97 SE6       30.10S
LEXINGTON      CLOUDY    48  48 100 S3        30.09F
SAVANNAH       CLOUDY    48  48 100 SE5       30.10F
$$

TNZ008-025-027-028-033-062-065-066-280100-
NORTH MIDDLE TENNESSEE

CITY           SKY/WX    TMP DP  RH WIND       PRES   REMARKS
NASHVILLE      LGT RAIN  49  47  93 S5        30.15S
CLARKSVILLE    LGT RAIN  49  48  97 SE6       30.11S FOG
SMYRNA         LGT RAIN  48  47  97 CALM      30.16S
COOKEVILLE     CLOUDY    46  46 100 SE3       30.14F
CROSSVILLE     CLOUDY    51  36  56 SW5       30.16S
$$

TNZ061-075-076-078-094-096-097-280100-
SOUTH MIDDLE TENNESSEE

CITY           SKY/WX    TMP DP  RH WIND       PRES   REMARKS
FAYETTEVILLE   MOCLDY    52  43  71 MISG      30.13S
TULLAHOMA      CLOUDY    54  37  54 S10       30.14F
WINCHESTER     CLOUDY    55  41  58 S16       30.14F
MCMINNVILLE    CLOUDY    48  48 100 CALM      30.14S
COLUMBIA       CLOUDY   N/A N/A N/A SE3       30.12F
SHELBYVILLE    CLOUDY    50  48  93 CALM      30.14S
$$

TNZ017-018-042-046-047-280100-
NORTHEAST TENNESSEE

CITY           SKY/WX    TMP DP  RH WIND       PRES   REMARKS
TRI CITIES     MOCLDY    51  35  54 CALM      30.18R
ELIZABETHTON   DRIZZLE   46  36  66 CALM      30.18R
$$

TNZ012-013-036-069-073-074-280100-
CENTRAL EAST TENNESSEE

CITY           SKY/WX    TMP DP  RH WIND       PRES   REMARKS
KNOXVILLE      CLOUDY    50  40  68 CALM      30.18S
OAK RIDGE      CLOUDY    52  39  61 CALM      30.19F
GATLINBURG     CLOUDY    46  37  71 CALM      30.18F
MORRISTOWN     MOCLDY    48  39  71 CALM      30.19S
$$

TNZ083-085-099-280100-
SOUTHEAST TENNESSEE

CITY           SKY/WX    TMP DP  RH WIND       PRES   REMARKS
CHATTANOOGA    CLOUDY    55  42  61 S7        30.19F
$$

SKY/WX REPORTED AS FAIR MEANS FEW OR NO CLOUDS BELOW
12 THOUSAND FEET.




USA.gov is the U.S. government's official web portal to all federal, state and local government web resources and services.